Location: Helion Bumpstead
(52.0500°N, 0.4000°E)
Time: 07:43:37
(UTC+00:00)

NOSS 2-2 (D) - Pass Details

Date: 15 November 2025
Orbit: 385 x 1704 km, 63.3° (Epoch: 14 December)

Event Time Altitude Azimuth Distance (km) Brightness Sun altitude
Exits shadow 05:01:58 28° 355° (N) 962 4.4 -20.8°
Maximum altitude 05:03:11 36° 35° (NE) 849 4.5 -20.6°
Drops below altitude 10° 05:07:18 10° 103° (ESE) 2,040 7.4 -20.0°
Sets 05:10:09 0° 112° (ESE) 3,174 8.6 -19.5°
